STARLINK-1800, 46700

Orbit data source: Space-Track

STARLINK-1800, 46700 is a payload satellite owned by SpaceX/Seattle (US) in LEO that was launched on Sun, 18 Oct 2020 UTC via an FALCON 9 launch vehicle from the Air Force Eastern Test Range (AFETR). Payload-class satellites include a variety of spacecraft equipped with specific instruments for various scientific and technological missions. These include communications satellites like Starlink; space stations such as the ISS; scientific satellites like the Hubble; Earth observation satellites from companies like Planet Labs, Umbra, and HawkEye 360; GPS; miniature CubeSats for education and research; and military/defense satellites.

Loading next visibility...
Identifier
46700, 2020-073AG
Orbit
LEO
Country
Flag of USUS
Related business
Manufacturer
SpaceX/Seattle
Mission
Operational Commercial Communications
Bus & Motor
STARLINK, Unknown motor
Mass
260 kg wet, ~248 kg dry
Launch date (UTC)
Icon of a cake. It is the launch day of the satellite!2020-10-18 (5 years ago)
Launch vehicle
FALCON 9
Launch site
Air Force Eastern Test Range (AFETR)
Object type
Payload
Rocket body
Debris
Shape & HBR
Box + 1 Pan, 10.1 m
Radar Cross Section
13.562 m², Large (>1 m²)

Expand to show TLE details & history
Last TLE update: 3 days ago

TLE from 3 days ago
0 STARLINK-1800
1 46700U 20073AG  25288.66670139  .00138247  00000-0  52074-2 0  9997
2 46700  53.0534 187.0192 0001895  87.1660  91.3415 15.26084656  5795
Epoch: 2025-10-15T16:00Z
TLE epoch observation values (Epoch: 2025-10-15T16:00:03.000Z)
Latitude
1.10246°
Longitude
101.7445°
Altitude
488.311 km
Speed
7.622 km/s
True Right ascension
00h 24m 46s
True Declination
1° 05' 44"
Sunlit
Object was in full shadow at epoch
Visualization orbit readout
Latitude
Unknown
Longitude
Unknown
Altitude
Unknown
Speed
Unknown
Apparent Right ascension
Unknown
Apparent Declination
Unknown
Sunlit
N/A
Visualization observer readout
Local Sidereal Time
22:55:47
Azimuth
Unknown
Elevation
Unknown
Doppler factor
Unknown
Orbital elements
Apogee altitude
489.105 km
Perigee altitude
486.502 km
Semi-major axis
6,865.941 km
Eccentricity
0.00019
Inclination
53.0534°
RAAN
187.0192°
Arg. of periapsis
87.166°
True anomaly
91.36321°
Mean anomaly
91.3415°
Eccentric anomaly
91.35235°
Mean motion
3.81499 °/min
Orbital period
94.36 mins
BSTAR
0.0052074
Loading maneuver chart data...
Computing Atmospheric mass density...

Documentation

Showing up to 5 results
|